owner,sensor,date,latitude,longitude,air_temperature,qcFlag 
WAVCIS,ioos:station:WAVCIS:CSI03:1,2009-01-01T00:00:00Z,29.4412,-92.0613,15.09,11111222 
WAVCIS,ioos:station:WAVCIS:CSI03:1,2009-01-01T01:00:00Z,29.4412,-92.0613,13.9,11111222 
WAVCIS,ioos:station:WAVCIS:CSI03:1,2009-01-01T02:00:00Z,29.4412,-92.0613,12.79,11111222 
WAVCIS,ioos:station:WAVCIS:CSI03:1,2009-01-01T03:00:00Z,29.4412,-92.0613,12.11,11111222 
WAVCIS,ioos:station:WAVCIS:CSI03:1,2009-01-01T04:00:00Z,29.4412,-92.0613,11.67,11111222 
WAVCIS,ioos:station:WAVCIS:CSI03:1,2009-01-01T05:00:00Z,29.4412,-92.0613,11.18,11111222 
WAVCIS,ioos:station:WAVCIS:CSI03:1,2009-01-01T06:00:00Z,29.4412,-92.0613,10.86,11111222 
WAVCIS,ioos:station:WAVCIS:CSI03:1,2009-01-01T07:00:00Z,29.4412,-92.0613,11.28,11111222 
WAVCIS,ioos:station:WAVCIS:CSI03:1,2009-01-01T08:00:00Z,29.4412,-92.0613,10.88,11111222 
WAVCIS,ioos:station:WAVCIS:CSI03:1,2009-01-01T09:00:00Z,29.4412,-92.0613,10.47,11111222 
WAVCIS,ioos:station:WAVCIS:CSI03:1,2009-01-01T10:00:00Z,29.4412,-92.0613,10.22,11111222 
WAVCIS,ioos:station:WAVCIS:CSI03:1,2009-01-01T11:00:00Z,29.4412,-92.0613,10.41,11111222 
WAVCIS,ioos:station:WAVCIS:CSI03:1,2009-01-01T12:00:00Z,29.4412,-92.0613,10.27,11111222 
WAVCIS,ioos:station:WAVCIS:CSI03:1,2009-01-01T13:00:00Z,29.4412,-92.0613,10.33,11111222 
WAVCIS,ioos:station:WAVCIS:CSI03:1,2009-01-01T14:00:00Z,29.4412,-92.0613,10.32,11111222 
WAVCIS,ioos:station:WAVCIS:CSI03:1,2009-01-01T15:00:00Z,29.4412,-92.0613,10.57,11111222 
WAVCIS,ioos:station:WAVCIS:CSI03:1,2009-01-01T16:00:00Z,29.4412,-92.0613,10.77,11111222 
WAVCIS,ioos:station:WAVCIS:CSI03:1,2009-01-01T17:00:00Z,29.4412,-92.0613,10.68,11111222 
WAVCIS,ioos:station:WAVCIS:CSI03:1,2009-01-01T18:00:00Z,29.4412,-92.0613,11.07,11111222 
WAVCIS,ioos:station:WAVCIS:CSI03:1,2009-01-01T19:00:00Z,29.4412,-92.0613,11.82,11111222 
WAVCIS,ioos:station:WAVCIS:CSI03:1,2009-01-01T20:00:00Z,29.4412,-92.0613,12.37,11111222 
WAVCIS,ioos:station:WAVCIS:CSI03:1,2009-01-01T21:00:00Z,29.4412,-92.0613,13.09,11111222 
WAVCIS,ioos:station:WAVCIS:CSI03:1,2009-01-01T22:00:00Z,29.4412,-92.0613,13.95,11111222 
WAVCIS,ioos:station:WAVCIS:CSI03:1,2009-01-01T23:00:00Z,29.4412,-92.0613,14.32,11111222 
WAVCIS,ioos:station:WAVCIS:CSI03:1,2009-01-02T00:00:00Z,29.4412,-92.0613,14.62,11111222 
WAVCIS,ioos:station:WAVCIS:CSI03:1,2009-01-02T01:00:00Z,29.4412,-92.0613,15.25,11111222 
WAVCIS,ioos:station:WAVCIS:CSI03:1,2009-01-02T02:00:00Z,29.4412,-92.0613,15.55,11111222 
WAVCIS,ioos:station:WAVCIS:CSI03:1,2009-01-02T03:00:00Z,29.4412,-92.0613,16.08,11111222 
WAVCIS,ioos:station:WAVCIS:CSI03:1,2009-01-02T04:00:00Z,29.4412,-92.0613,16.28,11111222 
WAVCIS,ioos:station:WAVCIS:CSI03:1,2009-01-02T05:00:00Z,29.4412,-92.0613,16.37,11111222 
WAVCIS,ioos:station:WAVCIS:CSI03:1,2009-01-02T06:00:00Z,29.4412,-92.0613,16.82,11111222 
WAVCIS,ioos:station:WAVCIS:CSI03:1,2009-01-02T07:00:00Z,29.4412,-92.0613,16.95,11111222 
WAVCIS,ioos:station:WAVCIS:CSI03:1,2009-01-02T08:00:00Z,29.4412,-92.0613,16.9,11111222 
WAVCIS,ioos:station:WAVCIS:CSI03:1,2009-01-02T09:00:00Z,29.4412,-92.0613,16.94,11111222 
WAVCIS,ioos:station:WAVCIS:CSI03:1,2009-01-02T10:00:00Z,29.4412,-92.0613,17.83,11111222 
WAVCIS,ioos:station:WAVCIS:CSI03:1,2009-01-02T11:00:00Z,29.4412,-92.0613,17.66,11111222 
WAVCIS,ioos:station:WAVCIS:CSI03:1,2009-01-02T12:00:00Z,29.4412,-92.0613,19.49,11111222 
WAVCIS,ioos:station:WAVCIS:CSI03:1,2009-01-02T13:00:00Z,29.4412,-92.0613,18.0,11111222 
WAVCIS,ioos:station:WAVCIS:CSI03:1,2009-01-02T14:00:00Z,29.4412,-92.0613,18.44,11111222 
WAVCIS,ioos:station:WAVCIS:CSI03:1,2009-01-02T15:00:00Z,29.4412,-92.0613,18.52,11111222 
WAVCIS,ioos:station:WAVCIS:CSI03:1,2009-01-02T16:00:00Z,29.4412,-92.0613,18.73,11111222 
WAVCIS,ioos:station:WAVCIS:CSI03:1,2009-01-02T17:00:00Z,29.4412,-92.0613,19.85,11111222 
WAVCIS,ioos:station:WAVCIS:CSI03:1,2009-01-02T18:00:00Z,29.4412,-92.0613,19.22,11111222 
WAVCIS,ioos:station:WAVCIS:CSI03:1,2009-01-02T19:00:00Z,29.4412,-92.0613,19.68,11111222 
WAVCIS,ioos:station:WAVCIS:CSI03:1,2009-01-02T20:00:00Z,29.4412,-92.0613,20.53,11111222 
WAVCIS,ioos:station:WAVCIS:CSI03:1,2009-01-02T21:00:00Z,29.4412,-92.0613,20.64,11111222 
WAVCIS,ioos:station:WAVCIS:CSI03:1,2009-01-02T22:00:00Z,29.4412,-92.0613,20.92,11111222 
WAVCIS,ioos:station:WAVCIS:CSI03:1,2009-01-02T23:00:00Z,29.4412,-92.0613,19.65,11111222 
WAVCIS,ioos:station:WAVCIS:CSI03:1,2009-01-03T00:00:00Z,29.4412,-92.0613,19.02,11111222 
WAVCIS,ioos:station:WAVCIS:CSI03:1,2009-01-03T01:00:00Z,29.4412,-92.0613,20.19,11111222 
WAVCIS,ioos:station:WAVCIS:CSI03:1,2009-01-03T02:00:00Z,29.4412,-92.0613,18.82,11111222 
WAVCIS,ioos:station:WAVCIS:CSI03:1,2009-01-03T03:00:00Z,29.4412,-92.0613,23.17,11111222 
WAVCIS,ioos:station:WAVCIS:CSI03:1,2009-01-03T04:00:00Z,29.4412,-92.0613,23.71,11111222 
WAVCIS,ioos:station:WAVCIS:CSI03:1,2009-01-03T05:00:00Z,29.4412,-92.0613,22.35,11111222 
WAVCIS,ioos:station:WAVCIS:CSI03:1,2009-01-03T06:00:00Z,29.4412,-92.0613,22.1,11111222 
WAVCIS,ioos:station:WAVCIS:CSI03:1,2009-01-03T07:00:00Z,29.4412,-92.0613,21.57,11111222 
WAVCIS,ioos:station:WAVCIS:CSI03:1,2009-01-03T08:00:00Z,29.4412,-92.0613,21.42,11111222 
WAVCIS,ioos:station:WAVCIS:CSI03:1,2009-01-03T09:00:00Z,29.4412,-92.0613,20.61,11111222 
WAVCIS,ioos:station:WAVCIS:CSI03:1,2009-01-03T10:00:00Z,29.4412,-92.0613,18.69,11111222 
WAVCIS,ioos:station:WAVCIS:CSI03:1,2009-01-03T11:00:00Z,29.4412,-92.0613,18.85,11111222 
WAVCIS,ioos:station:WAVCIS:CSI03:1,2009-01-03T12:00:00Z,29.4412,-92.0613,22.05,11111222 
WAVCIS,ioos:station:WAVCIS:CSI03:1,2009-01-03T13:00:00Z,29.4412,-92.0613,19.48,11111222 
WAVCIS,ioos:station:WAVCIS:CSI03:1,2009-01-03T14:00:00Z,29.4412,-92.0613,21.66,11111222 
WAVCIS,ioos:station:WAVCIS:CSI03:1,2009-01-03T15:00:00Z,29.4412,-92.0613,22.82,11111222 
WAVCIS,ioos:station:WAVCIS:CSI03:1,2009-01-03T16:00:00Z,29.4412,-92.0613,20.65,11111222 
WAVCIS,ioos:station:WAVCIS:CSI03:1,2009-01-03T17:00:00Z,29.4412,-92.0613,18.35,11111222 
WAVCIS,ioos:station:WAVCIS:CSI03:1,2009-01-03T18:00:00Z,29.4412,-92.0613,19.31,11111222 
WAVCIS,ioos:station:WAVCIS:CSI03:1,2009-01-03T19:00:00Z,29.4412,-92.0613,21.75,11111222 
WAVCIS,ioos:station:WAVCIS:CSI03:1,2009-01-03T20:00:00Z,29.4412,-92.0613,21.65,11111222 
WAVCIS,ioos:station:WAVCIS:CSI03:1,2009-01-03T21:00:00Z,29.4412,-92.0613,19.84,11111222 
WAVCIS,ioos:station:WAVCIS:CSI03:1,2009-01-03T22:00:00Z,29.4412,-92.0613,18.37,11111222 
WAVCIS,ioos:station:WAVCIS:CSI03:1,2009-01-03T23:00:00Z,29.4412,-92.0613,18.3,11111222 
WAVCIS,ioos:station:WAVCIS:CSI03:1,2009-01-04T00:00:00Z,29.4412,-92.0613,18.87,11111222 
WAVCIS,ioos:station:WAVCIS:CSI03:1,2009-01-04T01:00:00Z,29.4412,-92.0613,20.68,11111222 
WAVCIS,ioos:station:WAVCIS:CSI03:1,2009-01-04T02:00:00Z,29.4412,-92.0613,19.71,11111222 
WAVCIS,ioos:station:WAVCIS:CSI03:1,2009-01-04T03:00:00Z,29.4412,-92.0613,20.14,11111222 
WAVCIS,ioos:station:WAVCIS:CSI03:1,2009-01-04T04:00:00Z,29.4412,-92.0613,20.4,11111222 
WAVCIS,ioos:station:WAVCIS:CSI03:1,2009-01-04T05:00:00Z,29.4412,-92.0613,20.48,11111222 
WAVCIS,ioos:station:WAVCIS:CSI03:1,2009-01-04T06:00:00Z,29.4412,-92.0613,20.03,11111222 
WAVCIS,ioos:station:WAVCIS:CSI03:1,2009-01-04T07:00:00Z,29.4412,-92.0613,19.2,11111222 
WAVCIS,ioos:station:WAVCIS:CSI03:1,2009-01-04T08:00:00Z,29.4412,-92.0613,19.27,11111222 
WAVCIS,ioos:station:WAVCIS:CSI03:1,2009-01-04T09:00:00Z,29.4412,-92.0613,18.92,11111222 
WAVCIS,ioos:station:WAVCIS:CSI03:1,2009-01-04T10:00:00Z,29.4412,-92.0613,18.78,11111222 
WAVCIS,ioos:station:WAVCIS:CSI03:1,2009-01-04T11:00:00Z,29.4412,-92.0613,18.06,11111222 
WAVCIS,ioos:station:WAVCIS:CSI03:1,2009-01-04T12:00:00Z,29.4412,-92.0613,18.65,11111222 
WAVCIS,ioos:station:WAVCIS:CSI03:1,2009-01-04T13:00:00Z,29.4412,-92.0613,20.05,11111222 
WAVCIS,ioos:station:WAVCIS:CSI03:1,2009-01-04T14:00:00Z,29.4412,-92.0613,19.61,11111222 
WAVCIS,ioos:station:WAVCIS:CSI03:1,2009-01-04T15:00:00Z,29.4412,-92.0613,18.87,11111222 
WAVCIS,ioos:station:WAVCIS:CSI03:1,2009-01-04T16:00:00Z,29.4412,-92.0613,18.11,11111222 
WAVCIS,ioos:station:WAVCIS:CSI03:1,2009-01-04T17:00:00Z,29.4412,-92.0613,17.89,11111222 
WAVCIS,ioos:station:WAVCIS:CSI03:1,2009-01-04T18:00:00Z,29.4412,-92.0613,18.22,11111222 
WAVCIS,ioos:station:WAVCIS:CSI03:1,2009-01-04T19:00:00Z,29.4412,-92.0613,18.03,11111222 
WAVCIS,ioos:station:WAVCIS:CSI03:1,2009-01-04T20:00:00Z,29.4412,-92.0613,17.92,11111222 
WAVCIS,ioos:station:WAVCIS:CSI03:1,2009-01-04T21:00:00Z,29.4412,-92.0613,18.21,11111222 
WAVCIS,ioos:station:WAVCIS:CSI03:1,2009-01-04T22:00:00Z,29.4412,-92.0613,18.48,11111222 
WAVCIS,ioos:station:WAVCIS:CSI03:1,2009-01-04T23:00:00Z,29.4412,-92.0613,18.56,11111222 
WAVCIS,ioos:station:WAVCIS:CSI03:1,2009-01-05T00:00:00Z,29.4412,-92.0613,19.4,11111222 
WAVCIS,ioos:station:WAVCIS:CSI03:1,2009-01-05T01:00:00Z,29.4412,-92.0613,18.96,11111222 
WAVCIS,ioos:station:WAVCIS:CSI03:1,2009-01-05T02:00:00Z,29.4412,-92.0613,18.11,11111222 
WAVCIS,ioos:station:WAVCIS:CSI03:1,2009-01-05T03:00:00Z,29.4412,-92.0613,19.24,11111222 
WAVCIS,ioos:station:WAVCIS:CSI03:1,2009-01-05T04:00:00Z,29.4412,-92.0613,18.8,11111222 
WAVCIS,ioos:station:WAVCIS:CSI03:1,2009-01-05T05:00:00Z,29.4412,-92.0613,18.65,11111222 
WAVCIS,ioos:station:WAVCIS:CSI03:1,2009-01-05T06:00:00Z,29.4412,-92.0613,18.97,11111222 
WAVCIS,ioos:station:WAVCIS:CSI03:1,2009-01-05T07:00:00Z,29.4412,-92.0613,19.52,11111222 
WAVCIS,ioos:station:WAVCIS:CSI03:1,2009-01-05T08:00:00Z,29.4412,-92.0613,19.44,11111222 
WAVCIS,ioos:station:WAVCIS:CSI03:1,2009-01-05T09:00:00Z,29.4412,-92.0613,18.99,11111222 
WAVCIS,ioos:station:WAVCIS:CSI03:1,2009-01-05T10:00:00Z,29.4412,-92.0613,20.31,11111222 
WAVCIS,ioos:station:WAVCIS:CSI03:1,2009-01-05T11:00:00Z,29.4412,-92.0613,19.58,11111222 
WAVCIS,ioos:station:WAVCIS:CSI03:1,2009-01-05T12:00:00Z,29.4412,-92.0613,18.47,11111222 
WAVCIS,ioos:station:WAVCIS:CSI03:1,2009-01-05T13:00:00Z,29.4412,-92.0613,18.11,11111222 
WAVCIS,ioos:station:WAVCIS:CSI03:1,2009-01-05T14:00:00Z,29.4412,-92.0613,18.28,11111222 
WAVCIS,ioos:station:WAVCIS:CSI03:1,2009-01-05T15:00:00Z,29.4412,-92.0613,18.21,11111222 
WAVCIS,ioos:station:WAVCIS:CSI03:1,2009-01-05T16:00:00Z,29.4412,-92.0613,18.44,11111222 
WAVCIS,ioos:station:WAVCIS:CSI03:1,2009-01-05T17:00:00Z,29.4412,-92.0613,17.19,11111222 
WAVCIS,ioos:station:WAVCIS:CSI03:1,2009-01-05T18:00:00Z,29.4412,-92.0613,18.56,11111222 
WAVCIS,ioos:station:WAVCIS:CSI03:1,2009-01-05T19:00:00Z,29.4412,-92.0613,19.37,11111222 
WAVCIS,ioos:station:WAVCIS:CSI03:1,2009-01-05T20:00:00Z,29.4412,-92.0613,19.91,11111222 
WAVCIS,ioos:station:WAVCIS:CSI03:1,2009-01-05T21:00:00Z,29.4412,-92.0613,20.1,11111222 
WAVCIS,ioos:station:WAVCIS:CSI03:1,2009-01-05T22:00:00Z,29.4412,-92.0613,20.02,11111222 
WAVCIS,ioos:station:WAVCIS:CSI03:1,2009-01-05T23:00:00Z,29.4412,-92.0613,19.99,11111222 
WAVCIS,ioos:station:WAVCIS:CSI03:1,2009-01-06T00:00:00Z,29.4412,-92.0613,19.57,11111222 
WAVCIS,ioos:station:WAVCIS:CSI03:1,2009-01-06T01:00:00Z,29.4412,-92.0613,19.56,11111222 
WAVCIS,ioos:station:WAVCIS:CSI03:1,2009-01-06T02:00:00Z,29.4412,-92.0613,19.61,11111222 
WAVCIS,ioos:station:WAVCIS:CSI03:1,2009-01-06T03:00:00Z,29.4412,-92.0613,19.77,11111222 
WAVCIS,ioos:station:WAVCIS:CSI03:1,2009-01-06T04:00:00Z,29.4412,-92.0613,20.09,11111222 
WAVCIS,ioos:station:WAVCIS:CSI03:1,2009-01-06T05:00:00Z,29.4412,-92.0613,20.19,11111222 
WAVCIS,ioos:station:WAVCIS:CSI03:1,2009-01-06T06:00:00Z,29.4412,-92.0613,18.8,11111222 
WAVCIS,ioos:station:WAVCIS:CSI03:1,2009-01-06T07:00:00Z,29.4412,-92.0613,20.11,11111222 
WAVCIS,ioos:station:WAVCIS:CSI03:1,2009-01-06T08:00:00Z,29.4412,-92.0613,18.91,11111222 
WAVCIS,ioos:station:WAVCIS:CSI03:1,2009-01-06T09:00:00Z,29.4412,-92.0613,17.21,11111222 
WAVCIS,ioos:station:WAVCIS:CSI03:1,2009-01-06T10:00:00Z,29.4412,-92.0613,17.44,11111222 
WAVCIS,ioos:station:WAVCIS:CSI03:1,2009-01-06T11:00:00Z,29.4412,-92.0613,18.44,11111222 
WAVCIS,ioos:station:WAVCIS:CSI03:1,2009-01-06T12:00:00Z,29.4412,-92.0613,19.01,11111222 
WAVCIS,ioos:station:WAVCIS:CSI03:1,2009-01-06T13:00:00Z,29.4412,-92.0613,19.63,11111222 
WAVCIS,ioos:station:WAVCIS:CSI03:1,2009-01-06T14:00:00Z,29.4412,-92.0613,20.03,11111222 
WAVCIS,ioos:station:WAVCIS:CSI03:1,2009-01-06T15:00:00Z,29.4412,-92.0613,20.07,11111222 
WAVCIS,ioos:station:WAVCIS:CSI03:1,2009-01-06T16:00:00Z,29.4412,-92.0613,21.25,11111222 
WAVCIS,ioos:station:WAVCIS:CSI03:1,2009-01-06T17:00:00Z,29.4412,-92.0613,21.05,11111222 
WAVCIS,ioos:station:WAVCIS:CSI03:1,2009-01-06T18:00:00Z,29.4412,-92.0613,20.93,11111222 
WAVCIS,ioos:station:WAVCIS:CSI03:1,2009-01-06T19:00:00Z,29.4412,-92.0613,20.88,11111222 
WAVCIS,ioos:station:WAVCIS:CSI03:1,2009-01-06T20:00:00Z,29.4412,-92.0613,16.39,11111222 
WAVCIS,ioos:station:WAVCIS:CSI03:1,2009-01-06T21:00:00Z,29.4412,-92.0613,15.17,11111222 
WAVCIS,ioos:station:WAVCIS:CSI03:1,2009-01-06T22:00:00Z,29.4412,-92.0613,14.65,11111222 
WAVCIS,ioos:station:WAVCIS:CSI03:1,2009-01-06T23:00:00Z,29.4412,-92.0613,14.71,11111222 
WAVCIS,ioos:station:WAVCIS:CSI03:1,2009-01-07T00:00:00Z,29.4412,-92.0613,15.25,11111222 
WAVCIS,ioos:station:WAVCIS:CSI03:1,2009-01-07T01:00:00Z,29.4412,-92.0613,15.56,11111222 
WAVCIS,ioos:station:WAVCIS:CSI03:1,2009-01-07T02:00:00Z,29.4412,-92.0613,15.85,11111222 
WAVCIS,ioos:station:WAVCIS:CSI03:1,2009-01-07T03:00:00Z,29.4412,-92.0613,16.04,11111222 
WAVCIS,ioos:station:WAVCIS:CSI03:1,2009-01-07T04:00:00Z,29.4412,-92.0613,16.34,11111222 
WAVCIS,ioos:station:WAVCIS:CSI03:1,2009-01-07T05:00:00Z,29.4412,-92.0613,16.09,11111222 
WAVCIS,ioos:station:WAVCIS:CSI03:1,2009-01-07T06:00:00Z,29.4412,-92.0613,16.34,11111222 
WAVCIS,ioos:station:WAVCIS:CSI03:1,2009-01-07T07:00:00Z,29.4412,-92.0613,16.81,11111222 
WAVCIS,ioos:station:WAVCIS:CSI03:1,2009-01-07T08:00:00Z,29.4412,-92.0613,16.0,11111222 
WAVCIS,ioos:station:WAVCIS:CSI03:1,2009-01-07T09:00:00Z,29.4412,-92.0613,14.25,11111222 
WAVCIS,ioos:station:WAVCIS:CSI03:1,2009-01-07T10:00:00Z,29.4412,-92.0613,12.26,11111222 
WAVCIS,ioos:station:WAVCIS:CSI03:1,2009-01-07T11:00:00Z,29.4412,-92.0613,11.48,11111222 
WAVCIS,ioos:station:WAVCIS:CSI03:1,2009-01-07T12:00:00Z,29.4412,-92.0613,10.2,11111222 
WAVCIS,ioos:station:WAVCIS:CSI03:1,2009-01-07T13:00:00Z,29.4412,-92.0613,10.1,11111222 
WAVCIS,ioos:station:WAVCIS:CSI03:1,2009-01-07T14:00:00Z,29.4412,-92.0613,10.26,11111222 
WAVCIS,ioos:station:WAVCIS:CSI03:1,2009-01-07T15:00:00Z,29.4412,-92.0613,10.28,11111222 
WAVCIS,ioos:station:WAVCIS:CSI03:1,2009-01-07T16:00:00Z,29.4412,-92.0613,11.62,11111222 
WAVCIS,ioos:station:WAVCIS:CSI03:1,2009-01-07T17:00:00Z,29.4412,-92.0613,12.75,11111222 
WAVCIS,ioos:station:WAVCIS:CSI03:1,2009-01-07T18:00:00Z,29.4412,-92.0613,13.54,11111222 
WAVCIS,ioos:station:WAVCIS:CSI03:1,2009-01-07T19:00:00Z,29.4412,-92.0613,14.9,11111222 
WAVCIS,ioos:station:WAVCIS:CSI03:1,2009-01-07T20:00:00Z,29.4412,-92.0613,15.16,11111222 
WAVCIS,ioos:station:WAVCIS:CSI03:1,2009-01-07T21:00:00Z,29.4412,-92.0613,16.42,11111222 
WAVCIS,ioos:station:WAVCIS:CSI03:1,2009-01-07T22:00:00Z,29.4412,-92.0613,16.42,11111222 
WAVCIS,ioos:station:WAVCIS:CSI03:1,2009-01-07T23:00:00Z,29.4412,-92.0613,16.91,11111222 
WAVCIS,ioos:station:WAVCIS:CSI03:1,2009-01-08T00:00:00Z,29.4412,-92.0613,16.79,11111222 
WAVCIS,ioos:station:WAVCIS:CSI03:1,2009-01-08T01:00:00Z,29.4412,-92.0613,17.29,11111222 
WAVCIS,ioos:station:WAVCIS:CSI03:1,2009-01-08T02:00:00Z,29.4412,-92.0613,17.7,11111222 
WAVCIS,ioos:station:WAVCIS:CSI03:1,2009-01-08T03:00:00Z,29.4412,-92.0613,18.03,11111222 
WAVCIS,ioos:station:WAVCIS:CSI03:1,2009-01-08T04:00:00Z,29.4412,-92.0613,18.04,11111222 
WAVCIS,ioos:station:WAVCIS:CSI03:1,2009-01-08T05:00:00Z,29.4412,-92.0613,18.21,11111222 
WAVCIS,ioos:station:WAVCIS:CSI03:1,2009-01-08T06:00:00Z,29.4412,-92.0613,18.25,11111222 
WAVCIS,ioos:station:WAVCIS:CSI03:1,2009-01-08T07:00:00Z,29.4412,-92.0613,18.19,11111222 
WAVCIS,ioos:station:WAVCIS:CSI03:1,2009-01-08T08:00:00Z,29.4412,-92.0613,18.29,11111222 
WAVCIS,ioos:station:WAVCIS:CSI03:1,2009-01-08T09:00:00Z,29.4412,-92.0613,18.48,11111222 
WAVCIS,ioos:station:WAVCIS:CSI03:1,2009-01-08T10:00:00Z,29.4412,-92.0613,18.34,11111222 
WAVCIS,ioos:station:WAVCIS:CSI03:1,2009-01-08T11:00:00Z,29.4412,-92.0613,17.96,11111222 
WAVCIS,ioos:station:WAVCIS:CSI03:1,2009-01-08T12:00:00Z,29.4412,-92.0613,17.82,11111222 
WAVCIS,ioos:station:WAVCIS:CSI03:1,2009-01-08T13:00:00Z,29.4412,-92.0613,18.05,11111222 
WAVCIS,ioos:station:WAVCIS:CSI03:1,2009-01-08T14:00:00Z,29.4412,-92.0613,18.93,11111222 
WAVCIS,ioos:station:WAVCIS:CSI03:1,2009-01-08T15:00:00Z,29.4412,-92.0613,19.89,11111222 
WAVCIS,ioos:station:WAVCIS:CSI03:1,2009-01-08T16:00:00Z,29.4412,-92.0613,20.13,11111222 
WAVCIS,ioos:station:WAVCIS:CSI03:1,2009-01-08T17:00:00Z,29.4412,-92.0613,18.92,11111222 
WAVCIS,ioos:station:WAVCIS:CSI03:1,2009-01-08T18:00:00Z,29.4412,-92.0613,18.34,11111222 
WAVCIS,ioos:station:WAVCIS:CSI03:1,2009-01-08T19:00:00Z,29.4412,-92.0613,18.45,11111222 
WAVCIS,ioos:station:WAVCIS:CSI03:1,2009-01-08T20:00:00Z,29.4412,-92.0613,18.79,11111222 
WAVCIS,ioos:station:WAVCIS:CSI03:1,2009-01-08T21:00:00Z,29.4412,-92.0613,18.43,11111222 
WAVCIS,ioos:station:WAVCIS:CSI03:1,2009-01-08T22:00:00Z,29.4412,-92.0613,18.43,11111222 
WAVCIS,ioos:station:WAVCIS:CSI03:1,2009-01-08T23:00:00Z,29.4412,-92.0613,18.61,11111222 
WAVCIS,ioos:station:WAVCIS:CSI03:1,2009-01-09T00:00:00Z,29.4412,-92.0613,18.34,11111222 
WAVCIS,ioos:station:WAVCIS:CSI03:1,2009-01-09T01:00:00Z,29.4412,-92.0613,17.96,11111222 
WAVCIS,ioos:station:WAVCIS:CSI03:1,2009-01-09T02:00:00Z,29.4412,-92.0613,17.45,11111222 
WAVCIS,ioos:station:WAVCIS:CSI03:1,2009-01-09T03:00:00Z,29.4412,-92.0613,17.59,11111222 
WAVCIS,ioos:station:WAVCIS:CSI03:1,2009-01-09T04:00:00Z,29.4412,-92.0613,17.38,11111222 
WAVCIS,ioos:station:WAVCIS:CSI03:1,2009-01-09T05:00:00Z,29.4412,-92.0613,17.46,11111222 
WAVCIS,ioos:station:WAVCIS:CSI03:1,2009-01-09T06:00:00Z,29.4412,-92.0613,17.78,11111222 
WAVCIS,ioos:station:WAVCIS:CSI03:1,2009-01-09T07:00:00Z,29.4412,-92.0613,17.79,11111222 
WAVCIS,ioos:station:WAVCIS:CSI03:1,2009-01-09T08:00:00Z,29.4412,-92.0613,17.94,11111222 
WAVCIS,ioos:station:WAVCIS:CSI03:1,2009-01-09T09:00:00Z,29.4412,-92.0613,17.84,11111222 
WAVCIS,ioos:station:WAVCIS:CSI03:1,2009-01-09T10:00:00Z,29.4412,-92.0613,17.63,11111222 
WAVCIS,ioos:station:WAVCIS:CSI03:1,2009-01-09T11:00:00Z,29.4412,-92.0613,17.54,11111222 
WAVCIS,ioos:station:WAVCIS:CSI03:1,2009-01-09T12:00:00Z,29.4412,-92.0613,17.28,11111222 
WAVCIS,ioos:station:WAVCIS:CSI03:1,2009-01-09T13:00:00Z,29.4412,-92.0613,16.99,11111222 
WAVCIS,ioos:station:WAVCIS:CSI03:1,2009-01-09T14:00:00Z,29.4412,-92.0613,17.27,11111222 
WAVCIS,ioos:station:WAVCIS:CSI03:1,2009-01-09T15:00:00Z,29.4412,-92.0613,17.33,11111222 
WAVCIS,ioos:station:WAVCIS:CSI03:1,2009-01-09T16:00:00Z,29.4412,-92.0613,17.53,11111222 
WAVCIS,ioos:station:WAVCIS:CSI03:1,2009-01-09T17:00:00Z,29.4412,-92.0613,17.16,11111222 
WAVCIS,ioos:station:WAVCIS:CSI03:1,2009-01-09T18:00:00Z,29.4412,-92.0613,17.36,11111222 
WAVCIS,ioos:station:WAVCIS:CSI03:1,2009-01-09T19:00:00Z,29.4412,-92.0613,18.12,11111222 
WAVCIS,ioos:station:WAVCIS:CSI03:1,2009-01-09T20:00:00Z,29.4412,-92.0613,18.45,11111222 
WAVCIS,ioos:station:WAVCIS:CSI03:1,2009-01-09T21:00:00Z,29.4412,-92.0613,18.71,11111222 
WAVCIS,ioos:station:WAVCIS:CSI03:1,2009-01-09T22:00:00Z,29.4412,-92.0613,18.98,11111222 
WAVCIS,ioos:station:WAVCIS:CSI03:1,2009-01-09T23:00:00Z,29.4412,-92.0613,18.86,11111222 
WAVCIS,ioos:station:WAVCIS:CSI03:1,2009-01-10T00:00:00Z,29.4412,-92.0613,18.8,11111222 
WAVCIS,ioos:station:WAVCIS:CSI03:1,2009-01-10T01:00:00Z,29.4412,-92.0613,18.91,11111222 
WAVCIS,ioos:station:WAVCIS:CSI03:1,2009-01-10T02:00:00Z,29.4412,-92.0613,19.01,11111222 
WAVCIS,ioos:station:WAVCIS:CSI03:1,2009-01-10T03:00:00Z,29.4412,-92.0613,19.29,11111222 
WAVCIS,ioos:station:WAVCIS:CSI03:1,2009-01-10T04:00:00Z,29.4412,-92.0613,20.59,11111222 
WAVCIS,ioos:station:WAVCIS:CSI03:1,2009-01-10T05:00:00Z,29.4412,-92.0613,19.24,11111222 
WAVCIS,ioos:station:WAVCIS:CSI03:1,2009-01-10T06:00:00Z,29.4412,-92.0613,19.16,11111222 
WAVCIS,ioos:station:WAVCIS:CSI03:1,2009-01-10T07:00:00Z,29.4412,-92.0613,19.22,11111222 
WAVCIS,ioos:station:WAVCIS:CSI03:1,2009-01-10T08:00:00Z,29.4412,-92.0613,20.03,11111222 
WAVCIS,ioos:station:WAVCIS:CSI03:1,2009-01-10T09:00:00Z,29.4412,-92.0613,20.96,11111222 
WAVCIS,ioos:station:WAVCIS:CSI03:1,2009-01-10T10:00:00Z,29.4412,-92.0613,22.03,11111222 
WAVCIS,ioos:station:WAVCIS:CSI03:1,2009-01-10T11:00:00Z,29.4412,-92.0613,20.03,11111222 
WAVCIS,ioos:station:WAVCIS:CSI03:1,2009-01-10T12:00:00Z,29.4412,-92.0613,19.92,11111222 
WAVCIS,ioos:station:WAVCIS:CSI03:1,2009-01-10T13:00:00Z,29.4412,-92.0613,19.71,11111222 
WAVCIS,ioos:station:WAVCIS:CSI03:1,2009-01-10T14:00:00Z,29.4412,-92.0613,20.05,11111222 
WAVCIS,ioos:station:WAVCIS:CSI03:1,2009-01-10T15:00:00Z,29.4412,-92.0613,20.15,11111222 
WAVCIS,ioos:station:WAVCIS:CSI03:1,2009-01-10T16:00:00Z,29.4412,-92.0613,20.97,11111222 
WAVCIS,ioos:station:WAVCIS:CSI03:1,2009-01-10T17:00:00Z,29.4412,-92.0613,21.03,11111222 
WAVCIS,ioos:station:WAVCIS:CSI03:1,2009-01-10T18:00:00Z,29.4412,-92.0613,21.67,11111222 
WAVCIS,ioos:station:WAVCIS:CSI03:1,2009-01-10T19:00:00Z,29.4412,-92.0613,22.55,11111222 
WAVCIS,ioos:station:WAVCIS:CSI03:1,2009-01-10T20:00:00Z,29.4412,-92.0613,21.69,11111222 
WAVCIS,ioos:station:WAVCIS:CSI03:1,2009-01-10T21:00:00Z,29.4412,-92.0613,22.24,11111222 
WAVCIS,ioos:station:WAVCIS:CSI03:1,2009-01-10T22:00:00Z,29.4412,-92.0613,22.6,11111222 
WAVCIS,ioos:station:WAVCIS:CSI03:1,2009-01-10T23:00:00Z,29.4412,-92.0613,21.1,11111222 
WAVCIS,ioos:station:WAVCIS:CSI03:1,2009-01-11T00:00:00Z,29.4412,-92.0613,19.02,11111222 
WAVCIS,ioos:station:WAVCIS:CSI03:1,2009-01-11T01:00:00Z,29.4412,-92.0613,17.96,11111222 
WAVCIS,ioos:station:WAVCIS:CSI03:1,2009-01-11T02:00:00Z,29.4412,-92.0613,15.94,11111222 
WAVCIS,ioos:station:WAVCIS:CSI03:1,2009-01-11T03:00:00Z,29.4412,-92.0613,14.74,11111222 
WAVCIS,ioos:station:WAVCIS:CSI03:1,2009-01-11T04:00:00Z,29.4412,-92.0613,14.43,11111222 
WAVCIS,ioos:station:WAVCIS:CSI03:1,2009-01-11T05:00:00Z,29.4412,-92.0613,12.41,11111222 
WAVCIS,ioos:station:WAVCIS:CSI03:1,2009-01-11T06:00:00Z,29.4412,-92.0613,12.84,11111222 
WAVCIS,ioos:station:WAVCIS:CSI03:1,2009-01-11T07:00:00Z,29.4412,-92.0613,12.47,11111222 
WAVCIS,ioos:station:WAVCIS:CSI03:1,2009-01-11T08:00:00Z,29.4412,-92.0613,11.98,11111222 
WAVCIS,ioos:station:WAVCIS:CSI03:1,2009-01-11T09:00:00Z,29.4412,-92.0613,11.25,11111222 
WAVCIS,ioos:station:WAVCIS:CSI03:1,2009-01-11T10:00:00Z,29.4412,-92.0613,10.34,11111222 
WAVCIS,ioos:station:WAVCIS:CSI03:1,2009-01-11T11:00:00Z,29.4412,-92.0613,9.72,11111222 
WAVCIS,ioos:station:WAVCIS:CSI03:1,2009-01-11T12:00:00Z,29.4412,-92.0613,9.17,11111222 
WAVCIS,ioos:station:WAVCIS:CSI03:1,2009-01-11T13:00:00Z,29.4412,-92.0613,8.55,11111222 
WAVCIS,ioos:station:WAVCIS:CSI03:1,2009-01-11T14:00:00Z,29.4412,-92.0613,7.92,11111222 
WAVCIS,ioos:station:WAVCIS:CSI03:1,2009-01-11T15:00:00Z,29.4412,-92.0613,7.52,11111222 
WAVCIS,ioos:station:WAVCIS:CSI03:1,2009-01-11T16:00:00Z,29.4412,-92.0613,7.2,11111222 
WAVCIS,ioos:station:WAVCIS:CSI03:1,2009-01-11T17:00:00Z,29.4412,-92.0613,7.18,11111222 
WAVCIS,ioos:station:WAVCIS:CSI03:1,2009-01-11T18:00:00Z,29.4412,-92.0613,7.68,11111222 
WAVCIS,ioos:station:WAVCIS:CSI03:1,2009-01-11T19:00:00Z,29.4412,-92.0613,8.83,11111222 
WAVCIS,ioos:station:WAVCIS:CSI03:1,2009-01-11T20:00:00Z,29.4412,-92.0613,9.54,11111222 
WAVCIS,ioos:station:WAVCIS:CSI03:1,2009-01-11T21:00:00Z,29.4412,-92.0613,10.71,11111222 
WAVCIS,ioos:station:WAVCIS:CSI03:1,2009-01-11T22:00:00Z,29.4412,-92.0613,10.26,11111222 
WAVCIS,ioos:station:WAVCIS:CSI03:1,2009-01-11T23:00:00Z,29.4412,-92.0613,9.72,11111222 
WAVCIS,ioos:station:WAVCIS:CSI03:1,2009-01-12T00:00:00Z,29.4412,-92.0613,8.87,11111222 
WAVCIS,ioos:station:WAVCIS:CSI03:1,2009-01-12T01:00:00Z,29.4412,-92.0613,8.69,11111222 
WAVCIS,ioos:station:WAVCIS:CSI03:1,2009-01-12T02:00:00Z,29.4412,-92.0613,8.67,11111222 
WAVCIS,ioos:station:WAVCIS:CSI03:1,2009-01-12T03:00:00Z,29.4412,-92.0613,8.44,11111222 
WAVCIS,ioos:station:WAVCIS:CSI03:1,2009-01-12T04:00:00Z,29.4412,-92.0613,8.27,11111222 